Location: Newark
(42.9858°N, 0.6717°E)
Time: 13:52:22
(UTC+00:00)

S-56A Canister/Altair - Pass Details

Date: 21 November 2019
Orbit: 632 x 2500 km, 38.9° (Epoch: 15 December)

Event Time Altitude Azimuth Distance (km) Brightness Sun altitude
Rises 18:21:41 0° 262° (W) 5,038 13.3 -20.4°
Reaches altitude 10° 18:25:31 10° 260° (W) 3,744 12.2 -21.0°
Maximum altitude 18:34:27 65° 181° (S) 1,220 8.4 -22.7°
Enters shadow 18:36:51 40° 117° (ESE) 1,450 8.5 -23.1°
Drops below altitude 10° 18:40:20 10° 101° (E) 2,513 - -23.7°
Sets 18:42:28 0° 98° (E) 3,295 - -24.1°
